Visibility
14.8 15.0 15.0 15.0 15.0 15.0 14.2 15.0 13.9 12.9 15.0 14.0 15.0 15.0 15.0 15.0 15.0 15.0 15.0 15.0 15.0 15.0 15.0 15.0 15.0 15.0 15.0 15.0 15.0 15.0 15.0 15.0 7.3 13.3 7.6 13.2 15.0 15.0
15.0 15.0 15.0 15.0 15.0 15.0 15.0 15.0 15.0 15.0 15.0 15.0 15.0 15.0 15.0 15.0 15.0 15.0 15.0 15.0 15.0 15.0 15.0 15.0 15.0 15.0 15.0 15.0 15.0 15.0 15.0 14.9 15.0 4.2 4.8 13.2 15.0 15.0
15.0 15.0 15.0 15.0 15.0 15.0 15.0 14.4 12.8 15.0 15.0 15.0 15.0 15.0 15.0 15.0 15.0 15.0 15.0 15.0 15.0 15.0 15.0 15.0 15.0 15.0 15.0 15.0 15.0 15.0 11.3 15.0 15.0 12.6 12.5 8.8 13.1 15.0
15.0 15.0 15.0 15.0 15.0 15.0 15.0 15.0 14.8 15.0 15.0 15.0 15.0 15.0 15.0 15.0 15.0 15.0 15.0 15.0 15.0 15.0 15.0 15.0 14.8 15.0 15.0 15.0 15.0 15.0 15.0 15.0 15.0 15.0 11.2 14.9 15.0 15.0
15.0 15.0 15.0 15.0 15.0 15.0 15.0 15.0 15.0 15.0 15.0 15.0 15.0 15.0 15.0 15.0 15.0 15.0 15.0 15.0 15.0 15.0 15.0 15.0 15.0 15.0 15.0 15.0 15.0 14.2 6.9 15.0 13.5 13.7 15.0 15.0 13.4 15.0
15.0 15.0 15.0 15.0 15.0 15.0 15.0 15.0 15.0 15.0 15.0 15.0 15.0 15.0 15.0 15.0 15.0 15.0 7.8 15.0 15.0 15.0 15.0 15.0 15.0 15.0 15.0 15.0 13.9 9.2 11.5 14.9 15.0 15.0 15.0 15.0 15.0 15.0
15.0 15.0 15.0 15.0 15.0 15.0 15.0 15.0 15.0 15.0 15.0 15.0 15.0 15.0 15.0 1.3 3.9 15.0 15.0 15.0 15.0 15.0 15.0 10.2 1.7 0.3 0.3 1.9 15.0 14.6 11.8 15.0 15.0 15.0 15.0 10.2 8.6 12.0
15.0 15.0 15.0 15.0 15.0 15.0 15.0 15.0 15.0 15.0 15.0 15.0 15.0 15.0 15.0 15.0 15.0 15.0 15.0 0.5 0.0 2.1 0.2 0.1 0.5 0.1 0.4 1.0 3.9 4.1 9.2 15.0 14.8 11.0 11.5 14.6 15.0 15.0
15.0 15.0 15.0 15.0 15.0 15.0 15.0 15.0 15.0 15.0 15.0 15.0 15.0 15.0 15.0 15.0 15.0 15.0 15.0 15.0 15.0 0.1 15.0 0.1 8.7 0.1 4.2 11.9 5.7 9.1 13.7 6.9 10.6 13.8 15.0 15.0 15.0 15.0
15.0 15.0 15.0 15.0 15.0 15.0 15.0 15.0 15.0 15.0 12.1 15.0 15.0 15.0 15.0 15.0 15.0 10.6 15.0 0.1 0.4 0.6 13.2 0.2 0.2 0.1 0.1 0.5 5.9 5.8 10.3 11.7 12.2 15.0 15.0 15.0 15.0 15.0
13.7 7.6 10.6 15.0 15.0 15.0 15.0 15.0 1.5 0.0 2.4 7.8 12.3 7.4 15.0 15.0 15.0 4.0 0.1 0.2 2.1 1.4 0.6 0.7 2.1 2.0 0.8 0.1 0.0 0.0 0.1 11.6 7.3 15.0 13.7 14.2 15.0 15.0
15.0 7.3 8.3 10.7 13.8 15.0 15.0 15.0 0.8 0.0 0.1 0.7 14.1 6.4 4.3 3.4 1.4 5.3 6.2 0.5 0.4 0.4 0.3 0.9 0.9 0.5 0.1 0.1 0.1 0.9 8.9 7.0 6.0 11.3 8.8 6.7 15.0 15.0
6.2 7.9 0.1 0.3 3.4 0.5 0.7 9.7 0.2 0.1 1.5 1.8 4.6 2.0 1.1 0.6 0.3 0.6 1.1 1.1 0.9 0.4 0.1 0.1 0.1 0.1 0.2 0.2 0.4 0.6 1.6 12.3 15.0 15.0 4.0 4.0 15.0 15.0
0.2 0.3 0.2 5.5 5.8 2.0 3.0 3.8 0.4 0.8 4.6 2.9 1.2 0.8 1.3 1.3 0.6 0.3 0.2 0.1 0.1 0.1 0.1 0.1 0.1 0.1 0.1 0.2 0.2 0.8 2.8 15.0 15.0 15.0 15.0 15.0 15.0 15.0
1.0 0.3 0.6 2.6 4.9 1.5 0.4 0.3 0.2 0.5 0.4 0.3 0.5 0.2 0.1 0.1 0.1 0.1 0.1 0.1 0.1 0.1 0.1 0.1 0.1 0.1 0.2 0.2 0.5 10.4 15.0 15.0 14.7 8.5 15.0 15.0 15.0 15.0
0.9 0.6 0.4 0.4 0.3 0.4 1.0 0.4 0.2 0.2 0.2 0.1 0.1 0.1 0.1 0.1 0.1 0.1 0.1 0.1 0.1 0.1 0.2 0.8 1.1 1.2 1.3 7.0 15.0 15.0 15.0 15.0 15.0 15.0 15.0 15.0 15.0 15.0
0.3 0.4 0.4 0.2 0.1 0.1 0.1 0.1 0.1 0.1 0.1 0.1 0.1 0.1 0.1 0.1 0.1 0.2 0.2 0.1 0.1 0.1 0.8 3.7 6.9 7.6 14.5 15.0 15.0 15.0 15.0 15.0 15.0 15.0 15.0 15.0 15.0 15.0
1.9 0.7 0.7 0.9 0.3 0.1 0.1 0.1 0.1 0.1 0.1 0.1 0.1 0.1 0.1 0.1 0.1 0.2 1.6 2.4 2.6 2.4 3.1 12.5 15.0 15.0 15.0 15.0 15.0 15.0 15.0 15.0 15.0 15.0 15.0 15.0 15.0 15.0
1.1 1.5 1.3 0.8 0.2 0.1 0.1 0.1 0.1 0.1 0.2 0.5 0.6 0.8 7.7 12.4 6.0 7.6 13.7 14.6 14.9 15.0 15.0 15.0 15.0 15.0 15.0 15.0 15.0 15.0 15.0 15.0 15.0 15.0 15.0 15.0 15.0 15.0
6.7 1.3 0.3 0.1 0.1 0.1 0.2 0.2 0.1 0.1 0.6 3.7 4.6 6.2 13.4 14.7 15.0 15.0 15.0 15.0 15.0 15.0 15.0 15.0 15.0 15.0 15.0 7.0 9.9 15.0 15.0 15.0 15.0 15.0 15.0 15.0 15.0 15.0
0.4 0.4 0.2 0.2 0.1 0.2 0.3 1.2 3.4 3.2 10.3 15.0 15.0 15.0 15.0 15.0 15.0 15.0 15.0 15.0 15.0 15.0 15.0 15.0 15.0 15.0 15.0 15.0 15.0 15.0 15.0 15.0 15.0 15.0 15.0 8.0 7.8 15.0
0.1 0.1 0.1 0.2 1.0 4.1 4.5 6.4 4.7 5.5 9.1 14.9 15.0 15.0 15.0 15.0 15.0 15.0 15.0 15.0 15.0 15.0 15.0 15.0 15.0 15.0 15.0 15.0 15.0 15.0 15.0 15.0 15.0 15.0 15.0 14.5 1.0 0.2
3.7 5.1 5.0 5.0 6.3 12.1 15.0 15.0 15.0 15.0 15.0 15.0 12.1 14.8 13.7 4.6 9.9 15.0 15.0 15.0 15.0 15.0 15.0 15.0 15.0 15.0 15.0 15.0 15.0 15.0 15.0 15.0 15.0 15.0 15.0 15.0 14.8 14.5